Regional Weather Roundup
Issued by NWS

Home | Current Version | Previous Version | Graphics & Text | Print | Product List | Glossary On
Versions: 1 2 3 4 5 6 7 8 9 10 11 12 13 14 15 16 17 18 19 20 21 22 23 24 25 26 27 28 29 30 31 32 33 34 35 36 37 38 39 40 41 42 43 44 45 46 47 48 49 50
000
ASUS43 KLOT 031321
RWRIL

ILLINOIS REGIONAL WEATHER ROUNDUP
NATIONAL WEATHER SERVICE CHICAGO/ROMEOVILLE IL
800 AM CDT FRI JUL 03 2015

NOTE: "FAIR" INDICATES FEW OR NO CLOUDS BELOW 12,000 FEET WITH NO
SIGNIFICANT WEATHER AND/OR OBSTRUCTIONS TO VISIBILITY.

* THESE STATIONS ARE NOT UNDER NWS QUALITY CONTROL. THEY ALSO MAY NOT
  REPORT WEATHER SUCH AS PRECIPITATION OR FOG.

ILZ001-002-007-009-015-016-024-031400-
NORTHWEST ILLINOIS

CITY           SKY/WX    TMP DP  RH WIND       PRES   REMARKS
MOLINE         PTSUNNY   63  55  75 NE7       29.98R
STERLING*      CLOUDY    61  54  77 E8        29.99R
SAVANNA*       MOSUNNY   60  53  77 N3        29.99S
$$

ILZ003-004-008-010-011-017-018-031400-
NORTH CENTRAL ILLINOIS

CITY           SKY/WX    TMP DP  RH WIND       PRES   REMARKS
ROCKFORD       CLOUDY    62  51  67 NE3       30.00S
FREEPORT*      PTSUNNY   56  52  86 CALM      30.01S
ROCHELLE*      PTSUNNY   59  54  83 NE3       29.99F
DE KALB*       PTSUNNY   59  54  85 E6        30.00S
PERU*          CLOUDY    60  54  79 NE6       29.98S
$$

ILZ005-006-012>014-019>023-031400-
NORTHEAST ILLINOIS

CITY           SKY/WX    TMP DP  RH WIND       PRES   REMARKS
CHICAGO-OHARE  CLOUDY    61  55  81 CALM      29.98S
CHICAGO-MIDWAY CLOUDY    66  57  72 E6        29.98R
AURORA         CLOUDY    62  54  74 E6        29.99R
LANSING*       PTSUNNY   64  54  71 SE5       29.98S
JOLIET*        CLOUDY    64  58  81 NE3       29.98R
WAUKEGAN       PTSUNNY   60  55  83 NE3       29.99R
DUPAGE AIRPORT PTSUNNY   62  55  77 NE3       29.98R
KANKAKEE*      CLOUDY    63  57  81 E6        29.97S
WHEELING       PTSUNNY   63  56  78 NE3       30.00R
MORRIS*        CLOUDY    60  56  84 CALM      29.96S
ROMEOVILLE*    CLOUDY    62  56  79 E6        29.99R
NORTHERLY ISL    N/A     63  56  78 E3          N/A
$$

LMZ740>746-031400-
SOUTHERN LAKE MICHIGAN

STATION/POSITION SKY/WX   TEMP    WIND        PRES    VSBY  WAVE
                          AIR SEA DIR/SP/G                  HT/PER
                          (F)     (DEG/KT/KT) (MB)    (MI)  (FT/S)
HARRISON CRIB              61      30/  3/  4   N/A
BURNHAM HARBOR             63      70/  4/  4   N/A
CALUMET HARBOR             63      50/  5/  6   N/A
BURNS HARBOR               65     120/ 10/ 15 1015.6R
MICHIGAN CITY              64     100/  6/  8   N/A
MICHIGAN CITY 6N           62 63   90/  4/  6   N/A           1/ 4
ST. JOSEPH                 61 62                N/A           1/ 4
$$

ILZ025>027-034>036-040-047-049-050-058-095>099-031400-
WEST-CENTRAL ILLINOIS

CITY           SKY/WX    TMP DP  RH WIND       PRES   REMARKS
QUINCY         MOSUNNY   64  60  87 NE8       29.95R
GALESBURG*     PTSUNNY   63  56  79 NE6       29.97S
MACOMB*        PTSUNNY   63  59  86 E5        29.98S
JACKSONVILLE*  MOSUNNY   64  61  88 N6        29.95R
PITTSFIELD*    MOSUNNY   66  62  86 NE5       29.96R
$$

ILZ028>032-037-038-041>044-048-051>054-059>061-031400-
CENTRAL ILLINOIS

CITY           SKY/WX    TMP DP  RH WIND       PRES   REMARKS
PONTIAC        CLOUDY    63  59  87 NE8       29.97S
BLOOMINGTON    CLOUDY    62  59  90 NE7       29.96S
DECATUR        PTSUNNY   66  61  84 NE8       29.92S
PEORIA         PTSUNNY   64  56  75 NE7       29.96R
LACON*         CLOUDY    62  55  79 CALM      29.96S
LINCOLN*       CLOUDY    65  59  83 NE5       29.95R
SPRINGFIELD    PTSUNNY   65  60  84 N6        29.94R
TAYLORVILLE    CLOUDY    63  61  94 N6        29.93R FOG
$$

ILZ033-039-045-046-055>057-062-063-031400-
EAST-CENTRAL ILLINOIS

CITY           SKY/WX    TMP DP  RH WIND       PRES   REMARKS
CHAMPAIGN      PTSUNNY   66  59  78 NE7       29.92F
DANVILLE*      PTSUNNY   64  59  81 E8        29.91S
RANTOUL*       CLOUDY    67  60  79 NE9       29.94S
MATTOON        PTSUNNY   67  63  87 NE7       29.90R
PARIS*         CLOUDY    66  63  87 NE7       29.92R
$$

ILZ079-100>102-031400-
SOUTHWEST ILLINOIS

CITY           SKY/WX    TMP DP  RH WIND       PRES   REMARKS
ALTON          SUNNY     66  66 100 N6        29.92R
BELLEVILLE     SUNNY     69  67  95 VRB3      29.89S
CAHOKIA*       PTSUNNY   71  63  75 N6        29.90S
SPARTA*        MOSUNNY   69  64  85 N6        29.90S
$$

ILZ064>066-069>071-074>076-080>082-084>086-088>090-092>094-031400-
SOUTH-CENTRAL ILLINOIS

CITY           SKY/WX    TMP DP  RH WIND       PRES   REMARKS
CARBONDALE     MOSUNNY   71  65  81 N6        29.87S
CAIRO*         MOSUNNY   73  69  88 N6        29.87S
EFFINGHAM*     MOSUNNY   69  63  81 N3        29.91S HAZE
MARION         MOSUNNY   72  68  88 N6        29.88S
MT. VERNON     SUNNY     72  64  78 N5        29.88F
CENTRALIA*     SUNNY     69  64  82 N5        29.89F
SALEM*         SUNNY     71  65  83 N3        29.89F HAZE
METROPOLIS*    PTSUNNY   72  72 100 NW5       29.88R FOG
$$

ILZ067-068-072-073-078-083-087-091-031400-
SOUTHEAST ILLINOIS

CITY           SKY/WX    TMP DP  RH WIND       PRES   REMARKS
LAWRENCEVILLE  CLOUDY    71  67  87 NE8       29.87S FOG
FLORA*         PTSUNNY   70  66  88 N3        29.89S FOG
FAIRFIELD*     CLOUDY    71  68  91 N3        29.87R FOG
HARRISBURG*    MOSUNNY   72  70  93 N7        29.87F
ROBINSON*      PTSUNNY   70  66  85 NE5       29.89S
CARMI*         CLOUDY    71  66  83 N6        29.86S HAZE
$$

ABBREVIATIONS USED IN REMARKS
   TC - TEMPERATURE IN CELSIUS
  WCI - WIND CHILL INDEX
   HX - HEAT INDEX
  VSB - VISIBILITY
$$



USA.gov is the U.S. government's official web portal to all federal, state and local government web resources and services.